When you browse on this site, cookies collect data to enhance your experience and personalize the content and advertising you see.
Visit our Privacy Policy to learn more. By continuing to use the site, you agree to this use of cookies and data.
  • Em Portugal
  • Lista de países
  • Para 7 dias
  • Temperatura da água
  • Mapas de satélite
  • Mapa do tempo
  • Widgets de tempo
  • user-avatar
    Iniciar Sessão

    Previsão horária em Novaya Popovka

    Hoje, 16 Julho, Terça-feira

    Tempo Temperatura Precipitação Vento Pressão Humidade
    00:00 +16°C° 0 mm 2 m/s 744 mmHg 83%
    01:00 +15°C° 0 mm 2 m/s 744 mmHg 84%
    02:00 +15°C° 0 mm 2 m/s 744 mmHg 86%
    03:00 +15°C° 0 mm 2 m/s 744 mmHg 86%
    04:00 +15°C° 0 mm 2 m/s 744 mmHg 85%
    05:00 +16°C° 0 mm 2 m/s 744 mmHg 84%
    06:00 +16°C° 0 mm 2 m/s 744 mmHg 83%
    07:00 +18°C° 0 mm 3 m/s 744 mmHg 79%
    08:00 +20°C° 0 mm 3 m/s 744 mmHg 74%
    09:00 +21°C° 0 mm 4 m/s 744 mmHg 70%
    10:00 +22°C° 0.3 mm 4 m/s 744 mmHg 67%
    11:00 +23°C° 0.3 mm 4 m/s 744 mmHg 65%
    12:00 +25°C° 0.3 mm 5 m/s 744 mmHg 62%
    13:00 +25°C° 0.4 mm 4 m/s 744 mmHg 62%
    14:00 +25°C° 0.4 mm 4 m/s 744 mmHg 62%
    15:00 +25°C° 0.4 mm 4 m/s 743 mmHg 62%
    16:00 +23°C° 0.2 mm 4 m/s 743 mmHg 65%
    17:00 +24°C° 0.2 mm 3 m/s 743 mmHg 68%
    18:00 +24°C° 0.2 mm 3 m/s 743 mmHg 71%
    19:00 +21°C° 0.5 mm 2 m/s 743 mmHg 76%
    20:00 +20°C° 0.5 mm 2 m/s 743 mmHg 80%
    21:00 +19°C° 0.5 mm 1 m/s 743 mmHg 84%
    22:00 +19°C° 0.2 mm 1 m/s 743 mmHg 85%
    23:00 +19°C° 0.2 mm 1 m/s 743 mmHg 85%

    Amanhã, 17 Julho, Quarta-feira

    Tempo Temperatura Precipitação Vento Pressão Humidade
    00:00 +19°C° 0.2 mm 1 m/s 743 mmHg 86%
    01:00 +17°C° 0.1 mm 2 m/s 743 mmHg 88%
    02:00 +16°C° 0.1 mm 2 m/s 743 mmHg 91%
    03:00 +16°C° 0.1 mm 3 m/s 742 mmHg 93%
    04:00 +16°C° 0 mm 3 m/s 742 mmHg 93%
    05:00 +16°C° 0 mm 3 m/s 742 mmHg 94%
    06:00 +16°C° 0 mm 3 m/s 741 mmHg 94%
    07:00 +17°C° 0 mm 3 m/s 741 mmHg 91%
    08:00 +18°C° 0 mm 3 m/s 741 mmHg 87%
    09:00 +19°C° 0 mm 3 m/s 741 mmHg 84%
    10:00 +20°C° 0.3 mm 3 m/s 741 mmHg 81%
    11:00 +20°C° 0.3 mm 2 m/s 740 mmHg 79%
    12:00 +21°C° 0.3 mm 2 m/s 740 mmHg 76%
    13:00 +22°C° 0.7 mm 1 m/s 740 mmHg 75%
    14:00 +23°C° 0.7 mm 1 m/s 739 mmHg 73%
    15:00 +23°C° 0.7 mm 1 m/s 739 mmHg 71%
    16:00 +23°C° 0.4 mm 1 m/s 739 mmHg 73%
    17:00 +23°C° 0.4 mm 1 m/s 739 mmHg 74%
    18:00 +23°C° 0.4 mm 2 m/s 739 mmHg 76%
    19:00 +22°C° 0.1 mm 1 m/s 739 mmHg 81%
    20:00 +20°C° 0.1 mm 1 m/s 739 mmHg 86%
    21:00 +19°C° 0.1 mm 1 m/s 739 mmHg 91%
    22:00 +18°C° 0 mm 1 m/s 739 mmHg 91%
    23:00 +18°C° 0 mm 1 m/s 739 mmHg 92%

    Depois de amanhã, 18 Julho, Quinta-feira

    Tempo Temperatura Precipitação Vento Pressão Humidade
    00:00 +18°C° 0 mm 1 m/s 739 mmHg 92%
    01:00 +16°C° 0 mm 1 m/s 739 mmHg 93%
    02:00 +16°C° 0 mm 1 m/s 740 mmHg 93%
    03:00 +16°C° 0 mm 1 m/s 740 mmHg 94%
    04:00 +16°C° 0 mm 1 m/s 740 mmHg 93%
    05:00 +18°C° 0 mm 1 m/s 740 mmHg 92%
    06:00 +18°C° 0 mm 1 m/s 740 mmHg 91%
    07:00 +18°C° 0 mm 2 m/s 741 mmHg 86%
    08:00 +20°C° 0 mm 2 m/s 741 mmHg 81%
    09:00 +21°C° 0 mm 3 m/s 741 mmHg 76%
    10:00 +22°C° 0 mm 3 m/s 741 mmHg 70%
    11:00 +24°C° 0 mm 3 m/s 741 mmHg 65%
    12:00 +25°C° 0 mm 4 m/s 742 mmHg 59%
    13:00 +25°C° 0 mm 4 m/s 742 mmHg 58%
    14:00 +25°C° 0 mm 4 m/s 742 mmHg 56%
    15:00 +26°C° 0 mm 3 m/s 742 mmHg 54%
    16:00 +25°C° 0 mm 3 m/s 742 mmHg 58%
    17:00 +25°C° 0 mm 3 m/s 742 mmHg 62%
    18:00 +25°C° 0 mm 2 m/s 742 mmHg 65%
    19:00 +23°C° 0.1 mm 2 m/s 742 mmHg 71%
    20:00 +20°C° 0.1 mm 2 m/s 742 mmHg 76%
    21:00 +18°C° 0.1 mm 2 m/s 743 mmHg 81%
    22:00 +17°C° 0 mm 2 m/s 743 mmHg 84%
    23:00 +17°C° 0 mm 2 m/s 743 mmHg 87%

    19 Julho, Sexta-feira

    Tempo Temperatura Precipitação Vento Pressão Humidade
    00:00 +16°C° 0 mm 2 m/s 743 mmHg 91%
    01:00 +16°C° 0 mm 2 m/s 743 mmHg 91%
    02:00 +15°C° 0 mm 2 m/s 743 mmHg 92%
    03:00 +15°C° 0 mm 2 m/s 743 mmHg 93%
    04:00 +15°C° 0 mm 2 m/s 743 mmHg 92%
    05:00 +15°C° 0 mm 2 m/s 744 mmHg 91%
    06:00 +16°C° 0 mm 2 m/s 744 mmHg 90%
    07:00 +17°C° 0 mm 3 m/s 744 mmHg 84%
    08:00 +19°C° 0 mm 3 m/s 744 mmHg 78%
    09:00 +20°C° 0 mm 4 m/s 744 mmHg 72%
    10:00 +21°C° 0 mm 4 m/s 744 mmHg 68%
    11:00 +22°C° 0 mm 5 m/s 744 mmHg 64%
    12:00 +23°C° 0 mm 5 m/s 745 mmHg 60%
    13:00 +23°C° 0.1 mm 5 m/s 744 mmHg 61%
    14:00 +23°C° 0.1 mm 5 m/s 744 mmHg 63%
    15:00 +23°C° 0.1 mm 5 m/s 744 mmHg 65%
    16:00 +23°C° 0.1 mm 4 m/s 744 mmHg 66%
    17:00 +23°C° 0.1 mm 4 m/s 744 mmHg 68%
    18:00 +24°C° 0.1 mm 3 m/s 744 mmHg 70%
    19:00 +21°C° 0 mm 3 m/s 744 mmHg 75%
    20:00 +20°C° 0 mm 3 m/s 745 mmHg 81%
    21:00 +18°C° 0 mm 3 m/s 745 mmHg 86%
    22:00 +18°C° 0.1 mm 3 m/s 745 mmHg 88%
    23:00 +17°C° 0.1 mm 3 m/s 745 mmHg 90%

    20 Julho, Sábado

    Tempo Temperatura Precipitação Vento Pressão Humidade
    00:00 +16°C° 0.1 mm 3 m/s 745 mmHg 92%
    01:00 +16°C° 0 mm 3 m/s 745 mmHg 93%
    02:00 +16°C° 0 mm 3 m/s 745 mmHg 94%
    03:00 +14°C° 0 mm 3 m/s 745 mmHg 95%
    04:00 +14°C° 0 mm 3 m/s 745 mmHg 94%
    05:00 +15°C° 0 mm 4 m/s 746 mmHg 93%
    06:00 +15°C° 0 mm 4 m/s 746 mmHg 91%
    07:00 +17°C° 0 mm 4 m/s 746 mmHg 85%
    08:00 +19°C° 0 mm 5 m/s 746 mmHg 79%
    09:00 +20°C° 0 mm 5 m/s 747 mmHg 73%
    10:00 +21°C° 0 mm 5 m/s 747 mmHg 68%
    11:00 +22°C° 0 mm 6 m/s 747 mmHg 63%
    12:00 +23°C° 0 mm 6 m/s 747 mmHg 58%
    13:00 +24°C° 0 mm 7 m/s 747 mmHg 57%
    14:00 +24°C° 0 mm 7 m/s 747 mmHg 56%
    15:00 +24°C° 0 mm 7 m/s 747 mmHg 55%
    16:00 +24°C° 0 mm 6 m/s 748 mmHg 59%
    17:00 +23°C° 0 mm 5 m/s 748 mmHg 62%
    18:00 +23°C° 0 mm 4 m/s 748 mmHg 66%
    19:00 +21°C° 0 mm 4 m/s 748 mmHg 71%
    20:00 +20°C° 0 mm 3 m/s 748 mmHg 75%
    21:00 +18°C° 0 mm 3 m/s 748 mmHg 80%
    22:00 +18°C° 0 mm 3 m/s 748 mmHg 82%
    23:00 +17°C° 0 mm 3 m/s 748 mmHg 84%

    21 Julho, Domingo

    Tempo Temperatura Precipitação Vento Pressão Humidade
    00:00 +17°C° 0 mm 3 m/s 748 mmHg 86%
    01:00 +16°C° 0 mm 3 m/s 748 mmHg 87%
    02:00 +16°C° 0 mm 3 m/s 748 mmHg 89%
    03:00 +14°C° 0 mm 3 m/s 748 mmHg 91%
    04:00 +16°C° 0 mm 3 m/s 748 mmHg 89%
    05:00 +16°C° 0 mm 3 m/s 748 mmHg 88%
    06:00 +16°C° 0 mm 3 m/s 748 mmHg 87%
    07:00 +18°C° 0 mm 3 m/s 748 mmHg 80%
    08:00 +20°C° 0 mm 4 m/s 748 mmHg 74%
    09:00 +21°C° 0 mm 4 m/s 749 mmHg 67%
    10:00 +22°C° 0 mm 5 m/s 749 mmHg 63%
    11:00 +23°C° 0 mm 5 m/s 749 mmHg 58%
    12:00 +25°C° 0 mm 5 m/s 749 mmHg 54%
    13:00 +25°C° 0 mm 5 m/s 748 mmHg 54%
    14:00 +26°C° 0 mm 5 m/s 748 mmHg 53%
    15:00 +26°C° 0 mm 5 m/s 748 mmHg 53%
    16:00 +25°C° 0 mm 4 m/s 748 mmHg 57%
    17:00 +25°C° 0 mm 4 m/s 748 mmHg 62%
    18:00 +24°C° 0 mm 3 m/s 748 mmHg 67%
    19:00 +22°C° 0 mm 3 m/s 748 mmHg 72%
    20:00 +20°C° 0 mm 2 m/s 748 mmHg 77%
    21:00 +18°C° 0 mm 2 m/s 748 mmHg 82%
    22:00 +18°C° 0 mm 2 m/s 748 mmHg 85%
    23:00 +17°C° 0 mm 2 m/s 748 mmHg 87%
    Mostrar mais